• In Hungary
  • List of Countries
  • For 7 days
  • Water Temperature
  • Satellite Maps
  • Weather Map
  • News
  • Weather Widgets
  • user-avatar
    Login

    Hourly Weather Tolkaevka

    Today, 18 July, Wednesday

    Time Temperature Precipitation Wind Pressure Humidity
    00:00 +20°C° 0 mm 4 mps 740 mmHg 88%
    01:00 +20°C° 0 mm 4 mps 739 mmHg 89%
    02:00 +20°C° 0 mm 3 mps 739 mmHg 89%
    03:00 +20°C° 0 mm 3 mps 739 mmHg 89%
    04:00 +20°C° 0 mm 2 mps 739 mmHg 88%
    05:00 +20°C° 0.2 mm 2 mps 739 mmHg 87%
    06:00 +21°C° 0.2 mm 2 mps 739 mmHg 86%
    07:00 +21°C° 0.2 mm 3 mps 739 mmHg 85%
    08:00 +24°C° 0.2 mm 2 mps 739 mmHg 80%
    09:00 +25°C° 0.2 mm 2 mps 739 mmHg 75%
    10:00 +26°C° 0 mm 2 mps 739 mmHg 73%
    11:00 +27°C° 0.4 mm 2 mps 739 mmHg 65%
    12:00 +28°C° 0.4 mm 2 mps 740 mmHg 57%
    13:00 +30°C° 0.4 mm 3 mps 740 mmHg 49%
    14:00 +30°C° 0.1 mm 3 mps 739 mmHg 50%
    15:00 +30°C° 0.1 mm 3 mps 739 mmHg 52%
    16:00 +29°C° 0.1 mm 3 mps 739 mmHg 53%
    17:00 +29°C° 0 mm 2 mps 739 mmHg 56%
    18:00 +28°C° 0 mm 2 mps 740 mmHg 59%
    19:00 +28°C° 0 mm 2 mps 740 mmHg 62%
    20:00 +26°C° 0 mm 1 mps 740 mmHg 64%
    21:00 +25°C° 0 mm 1 mps 740 mmHg 66%
    22:00 +24°C° 0 mm 1 mps 740 mmHg 68%
    23:00 +23°C° 0.2 mm 1 mps 740 mmHg 69%

    Tomorrow, 19 July, Thursday

    Time Temperature Precipitation Wind Pressure Humidity
    00:00 +23°C° 0.2 mm 1 mps 740 mmHg 69%
    01:00 +22°C° 0.2 mm 1 mps 740 mmHg 70%
    02:00 +22°C° 0.1 mm 1 mps 740 mmHg 71%
    03:00 +22°C° 0.1 mm 1 mps 741 mmHg 71%
    04:00 +21°C° 0.1 mm 1 mps 741 mmHg 72%
    05:00 +22°C° 0 mm 1 mps 741 mmHg 70%
    06:00 +23°C° 0 mm 1 mps 741 mmHg 68%
    07:00 +24°C° 0 mm 1 mps 741 mmHg 67%
    08:00 +26°C° 0 mm 2 mps 741 mmHg 61%
    09:00 +28°C° 0 mm 2 mps 742 mmHg 55%
    10:00 +30°C° 0 mm 3 mps 742 mmHg 50%
    11:00 +30°C° 0 mm 3 mps 742 mmHg 48%
    12:00 +30°C° 0 mm 3 mps 742 mmHg 46%
    13:00 +31°C° 0 mm 3 mps 742 mmHg 44%
    14:00 +31°C° 0 mm 2 mps 742 mmHg 44%
    15:00 +31°C° 0 mm 2 mps 742 mmHg 44%
    16:00 +31°C° 0 mm 2 mps 742 mmHg 44%
    17:00 +30°C° 0 mm 2 mps 742 mmHg 48%
    18:00 +30°C° 0 mm 1 mps 742 mmHg 51%
    19:00 +29°C° 0 mm 1 mps 742 mmHg 54%
    20:00 +28°C° 0 mm 1 mps 742 mmHg 55%
    21:00 +27°C° 0 mm 1 mps 742 mmHg 55%
    22:00 +24°C° 0 mm 0 mps 742 mmHg 55%
    23:00 +25°C° 0 mm 1 mps 742 mmHg 57%

    Day after tomorrow, 20 July, Friday

    Time Temperature Precipitation Wind Pressure Humidity
    00:00 +24°C° 0 mm 1 mps 742 mmHg 59%
    01:00 +24°C° 0 mm 1 mps 742 mmHg 61%
    02:00 +23°C° 0 mm 1 mps 742 mmHg 62%
    03:00 +23°C° 0 mm 1 mps 743 mmHg 63%
    04:00 +23°C° 0 mm 1 mps 743 mmHg 64%
    05:00 +24°C° 0 mm 1 mps 743 mmHg 64%
    06:00 +25°C° 0 mm 1 mps 743 mmHg 63%
    07:00 +26°C° 0 mm 1 mps 743 mmHg 62%
    08:00 +27°C° 0 mm 1 mps 743 mmHg 58%
    09:00 +29°C° 0 mm 1 mps 743 mmHg 53%
    10:00 +30°C° 0 mm 2 mps 743 mmHg 48%
    11:00 +31°C° 0 mm 1 mps 743 mmHg 45%
    12:00 +32°C° 0 mm 1 mps 743 mmHg 42%
    13:00 +33°C° 0 mm 1 mps 743 mmHg 39%
    14:00 +32°C° 0 mm 1 mps 743 mmHg 40%
    15:00 +32°C° 0 mm 1 mps 743 mmHg 42%
    16:00 +32°C° 0 mm 1 mps 742 mmHg 44%
    17:00 +31°C° 0 mm 2 mps 742 mmHg 48%
    18:00 +31°C° 0 mm 2 mps 742 mmHg 52%
    19:00 +30°C° 0 mm 2 mps 742 mmHg 56%
    20:00 +28°C° 0 mm 3 mps 742 mmHg 61%
    21:00 +27°C° 0 mm 3 mps 742 mmHg 66%
    22:00 +25°C° 0 mm 3 mps 742 mmHg 70%
    23:00 +24°C° 0 mm 3 mps 742 mmHg 73%

    21 July, Saturday

    Time Temperature Precipitation Wind Pressure Humidity
    00:00 +24°C° 0 mm 2 mps 742 mmHg 75%
    01:00 +23°C° 0 mm 2 mps 742 mmHg 77%
    02:00 +23°C° 0 mm 2 mps 742 mmHg 79%
    03:00 +21°C° 0 mm 2 mps 742 mmHg 80%
    04:00 +21°C° 0 mm 2 mps 742 mmHg 81%
    05:00 +22°C° 0 mm 3 mps 742 mmHg 80%
    06:00 +22°C° 0 mm 3 mps 742 mmHg 78%
    07:00 +24°C° 0 mm 3 mps 742 mmHg 77%
    08:00 +26°C° 0.1 mm 4 mps 742 mmHg 72%
    09:00 +27°C° 0.1 mm 4 mps 743 mmHg 67%
    10:00 +29°C° 0.1 mm 4 mps 743 mmHg 61%
    11:00 +30°C° 0.3 mm 4 mps 743 mmHg 58%
    12:00 +32°C° 0.3 mm 4 mps 742 mmHg 55%
    13:00 +32°C° 0.3 mm 5 mps 742 mmHg 52%
    14:00 +32°C° 0.3 mm 5 mps 742 mmHg 52%
    15:00 +32°C° 0.3 mm 5 mps 742 mmHg 53%
    16:00 +32°C° 0.3 mm 5 mps 742 mmHg 53%
    17:00 +30°C° 0.3 mm 5 mps 742 mmHg 58%
    18:00 +29°C° 0.3 mm 4 mps 742 mmHg 62%
    19:00 +29°C° 0.3 mm 4 mps 742 mmHg 66%
    20:00 +27°C° 0 mm 4 mps 742 mmHg 71%
    21:00 +26°C° 0 mm 4 mps 742 mmHg 75%
    22:00 +23°C° 0 mm 5 mps 742 mmHg 80%
    23:00 +23°C° 0 mm 5 mps 742 mmHg 80%

    22 July, Sunday

    Time Temperature Precipitation Wind Pressure Humidity
    00:00 +22°C° 0 mm 5 mps 742 mmHg 81%
    01:00 +21°C° 0 mm 6 mps 742 mmHg 82%
    02:00 +21°C° 0 mm 5 mps 742 mmHg 82%
    03:00 +20°C° 0 mm 5 mps 742 mmHg 83%
    04:00 +20°C° 0 mm 5 mps 742 mmHg 84%
    05:00 +21°C° 0 mm 5 mps 742 mmHg 82%
    06:00 +21°C° 0 mm 6 mps 742 mmHg 80%
    07:00 +22°C° 0 mm 6 mps 742 mmHg 78%
    08:00 +23°C° 0 mm 7 mps 742 mmHg 74%
    09:00 +24°C° 0 mm 7 mps 742 mmHg 71%
    10:00 +26°C° 0 mm 7 mps 742 mmHg 67%
    11:00 +27°C° 0 mm 7 mps 742 mmHg 65%
    12:00 +28°C° 0 mm 7 mps 742 mmHg 63%
    13:00 +28°C° 0 mm 7 mps 742 mmHg 60%
    14:00 +28°C° 0.3 mm 7 mps 742 mmHg 61%
    15:00 +28°C° 0.3 mm 7 mps 742 mmHg 61%
    16:00 +28°C° 0.3 mm 7 mps 742 mmHg 61%
    17:00 +28°C° 0.2 mm 7 mps 742 mmHg 64%
    18:00 +27°C° 0.2 mm 6 mps 742 mmHg 67%
    19:00 +26°C° 0.2 mm 6 mps 742 mmHg 69%
    20:00 +24°C° 0.1 mm 6 mps 743 mmHg 70%
    21:00 +23°C° 0.1 mm 6 mps 743 mmHg 71%
    22:00 +22°C° 0.1 mm 7 mps 743 mmHg 71%
    23:00 +22°C° 0 mm 7 mps 743 mmHg 70%

    23 July, Monday

    Time Temperature Precipitation Wind Pressure Humidity
    00:00 +21°C° 0 mm 7 mps 744 mmHg 68%
    01:00 +20°C° 0 mm 7 mps 744 mmHg 66%
    02:00 +20°C° 0 mm 6 mps 744 mmHg 63%
    03:00 +19°C° 0 mm 6 mps 744 mmHg 61%
    04:00 +19°C° 0 mm 6 mps 744 mmHg 59%
    05:00 +17°C° 0 mm 7 mps 745 mmHg 60%
    06:00 +17°C° 0 mm 7 mps 745 mmHg 61%
    07:00 +17°C° 0 mm 7 mps 745 mmHg 62%
    08:00 +18°C° 0 mm 7 mps 745 mmHg 59%
    09:00 +21°C° 0 mm 7 mps 746 mmHg 57%
    10:00 +22°C° 0 mm 7 mps 746 mmHg 54%
    11:00 +23°C° 0 mm 7 mps 746 mmHg 52%
    12:00 +24°C° 0 mm 7 mps 746 mmHg 49%
    13:00 +26°C° 0 mm 7 mps 746 mmHg 46%
    14:00 +26°C° 0 mm 7 mps 746 mmHg 45%
    15:00 +26°C° 0 mm 6 mps 746 mmHg 45%
    16:00 +26°C° 0 mm 6 mps 746 mmHg 44%
    17:00 +24°C° 0 mm 6 mps 746 mmHg 48%
    18:00 +23°C° 0 mm 5 mps 746 mmHg 52%
    19:00 +22°C° 0 mm 4 mps 746 mmHg 57%
    20:00 +21°C° 0 mm 4 mps 747 mmHg 59%
    21:00 +20°C° 0 mm 4 mps 747 mmHg 62%
    22:00 +18°C° 0 mm 4 mps 747 mmHg 64%
    23:00 +17°C° 0 mm 5 mps 747 mmHg 64%
    Show more